Columbus, OH

2:59 PM EST on February 08, 2016 (GMT -0500)
Port Columbus International

Weather History for KCMH - March, 2014

Change the Weather History Date:

Saturday, March 22, 2014

  Actual Average Record
Temperature  
Mean Temperature 49 °F 44 °F  
Max Temperature 58 °F 54 °F 85 °F (2012)
Min Temperature 39 °F 35 °F 6 °F (1888)
Degree Days  
Heating Degree Days 16 21  
Month to date heating degree days 594 544  
Since 1 July heating degree days 4978 4539  
Cooling Degree Days 0 0  
Month to date cooling degree days 0 0  
Year to date cooling degree days 0 0  
Moisture  
Dew Point 30 °F    
Average Humidity 49    
Maximum Humidity 70    
Minimum Humidity 28    
Precipitation  
Precipitation 0.00 in 0.10 in 1.75 in (1879)
Month to date precipitation 1.32 2.03  
Year to date precipitation 6.11 7.01  
Snow  
Snow 0.00 in 0.10 in 4.00 in (1968)
Month to date snowfall 2.9 3.5  
Since 1 July snowfall 53.9 24.9  
Snow Depth 0.00 in    
Sea Level Pressure  
Sea Level Pressure 30.01 in    
Wind  
Wind Speed 11 mph (NW)    
Max Wind Speed 25 mph    
Max Gust Speed 33 mph    
Visibility 9 miles    
Events      
T = Trace of Precipitation, MM = Missing Value Source: NWS Daily Summary

Daily Weather History Graph

Daily Weather History Graph

Search for Another Location

Airport or City:

Trip Planner

Search our weather history database for the weather conditions in past years. The results will help you decide how hot, cold, wet, or windy it might be!

Date:

Astronomy

Mar. 22, 2014 Rise Set
Actual Time 7:31 AM EDT 7:45 PM EDT
Civil Twilight 7:04 AM EDT 8:12 PM EDT
Nautical Twilight 6:33 AM EDT 8:44 PM EDT
Astronomical Twilight 6:00 AM EDT 9:16 PM EDT
Moon 1:03 AM EDT (3/22) 11:14 AM EDT (3/22)
Length of Visible Light 13h 08m
Length of Day
12h 13m
Waning Gibbous, 65% of the Moon is Illuminated
Mar 22
Waning Gibbous
Mar 23
Last Quarter
Mar 30
New
Apr 7
First Quarter
Apr 15
Full

Hourly Weather History & Observations

Time (EDT) Temp. Windchill Dew Point Humidity Pressure Visibility Wind Dir Wind Speed Gust Speed Precip Events Conditions
12:51 AM 59.0 °F - 27.0 °F 29% 29.79 in 10.0 mi SSW 12.7 mph - N/A   Mostly Cloudy
1:51 AM 57.0 °F - 27.0 °F 32% 29.77 in 10.0 mi SSW 12.7 mph 18.4 mph N/A   Overcast
2:51 AM 55.9 °F - 27.0 °F 33% 29.76 in 10.0 mi SSW 11.5 mph - N/A   Overcast
3:51 AM 55.0 °F - 28.0 °F 35% 29.76 in 10.0 mi SSW 13.8 mph - N/A   Overcast
4:51 AM 54.0 °F - 30.0 °F 40% 29.78 in 10.0 mi WSW 10.4 mph - N/A   Mostly Cloudy
5:51 AM 50.0 °F - 37.0 °F 61% 29.83 in 10.0 mi NW 17.3 mph 25.3 mph N/A   Mostly Cloudy
6:51 AM 48.0 °F - 36.0 °F 63% 29.89 in 9.0 mi WNW 16.1 mph 23.0 mph N/A   Mostly Cloudy
7:51 AM 45.0 °F 38.9 °F 33.1 °F 63% 29.93 in 9.0 mi WNW 12.7 mph - N/A   Mostly Cloudy
8:51 AM 45.0 °F 39.7 °F 33.1 °F 63% 29.98 in 8.0 mi NW 10.4 mph 20.7 mph N/A   Scattered Clouds
9:47 AM 42.8 °F 35.4 °F 33.8 °F 70% 30.02 in 6.0 mi NW 15.0 mph 24.2 mph N/A   Haze
9:51 AM 43.0 °F 35.1 °F 33.1 °F 68% 30.03 in 6.0 mi NW 17.3 mph 24.2 mph N/A   Haze
10:51 AM 43.0 °F 37.7 °F 32.0 °F 65% 30.06 in 8.0 mi NNW 9.2 mph - N/A   Overcast
11:51 AM 43.0 °F 38.2 °F 32.0 °F 65% 30.08 in 8.0 mi WNW 8.1 mph - N/A   Overcast
12:51 PM 46.0 °F 41.0 °F 32.0 °F 58% 30.09 in 9.0 mi NNW 10.4 mph - N/A   Overcast
1:51 PM 46.9 °F - 30.9 °F 54% 30.08 in 9.0 mi NNW 9.2 mph - N/A   Overcast
2:00 PM 48.2 °F - 32.0 °F 54% 30.07 in 9.0 mi NW 8.1 mph - N/A   Overcast
2:51 PM 48.0 °F - 32.0 °F 54% 30.07 in 10.0 mi West 6.9 mph 18.4 mph N/A   Overcast
3:51 PM 48.0 °F - 30.0 °F 50% 30.07 in 9.0 mi NW 10.4 mph - N/A   Overcast
4:51 PM 48.0 °F - 30.0 °F 50% 30.07 in 7.0 mi NNW 11.5 mph - N/A   Overcast
5:51 PM 45.0 °F 38.5 °F 30.0 °F 56% 30.09 in 7.0 mi NNW 13.8 mph 20.7 mph N/A   Overcast
6:51 PM 44.1 °F 37.7 °F 28.9 °F 55% 30.13 in 7.0 mi NNW 12.7 mph - N/A   Overcast
7:51 PM 42.1 °F 35.7 °F 28.0 °F 58% 30.14 in 7.0 mi NNW 11.5 mph - N/A   Overcast
8:51 PM 42.1 °F 37.1 °F 27.0 °F 55% 30.15 in 10.0 mi NNW 8.1 mph - N/A   Overcast
9:51 PM 41.0 °F 33.1 °F 27.0 °F 57% 30.17 in 7.0 mi NNW 15.0 mph - N/A   Overcast
9:58 PM 39.2 °F 31.6 °F 26.6 °F 61% 30.15 in 10.0 mi NNW 12.7 mph - N/A   Overcast
10:51 PM 39.9 °F 35.1 °F 25.0 °F 55% 30.17 in 10.0 mi NNW 6.9 mph - N/A   Scattered Clouds
11:51 PM 39.0 °F 34.0 °F 25.0 °F 57% 30.18 in 10.0 mi NNW 6.9 mph - N/A   Mostly Cloudy